Regional Weather Roundup
Issued by NWS

Home | Current Version | Previous Version | Text Only | Print | Product List | Glossary Off
Versions: 1 2 3 4 5 6 7 8 9 10 11 12 13 14 15 16 17 18 19 20 21 22 23 24 25 26 27 28

000
ASUS45 KTFX 221810
RWRMT
MONTANA REGIONAL WEATHER ROUNDUP
NATIONAL WEATHER SERVICE GREAT FALLS MT
1200 PM MDT THU JUN 22 2017

NOTE: "FAIR" INDICATES FEW OR NO CLOUDS BELOW 12000 FEET WITH NO
SIGNIFICANT WEATHER AND/OR OBSTRUCTIONS TO VISIBILITY.

MTZ001>007-043-221900-
WEST OF THE DIVIDE

CITY           SKY/WX    TMP DP  RH WIND       PRES   REMARKS
KALISPELL      SUNNY     65  29  25 NW7G17    30.13S
MISSOULA       SUNNY     68  27  21 NW18G24   30.11F
BUTTE          SUNNY     62  26  25 W12G21    30.15S
MULLAN PASS    SUNNY     52  25  35 VRB5      30.23R
ANACONDA         N/A     63  30  29 N5        30.13S
DEER LODGE       N/A     63  27  25 NW20G26   30.14S
EUREKA           N/A     63  27  25 MISG      30.16S
HAMILTON         N/A     66  27  22 W5        30.12F
LIBBY            N/A     64  27  24 NE3       30.14S
$$

MTZ008-052>055-221900-
SOUTHWEST MONTANA

CITY           SKY/WX    TMP DP  RH WIND       PRES   REMARKS
BOZEMAN        SUNNY     68  29  23 NW18G25   30.10S
DILLON         SUNNY     66  28  24 N8        30.11F
W YELLOWSTONE  SUNNY     61  18  18 W8        30.15S
ENNIS          SUNNY     64  23  20 NW14      30.17F
THREE FORKS      N/A     68  26  20 NW6       30.08S
$$

MTZ009-010-012-014-046-048-049-054-221900-
EAST SLOPES AND CENTRAL MONTANA

CITY           SKY/WX    TMP DP  RH WIND       PRES   REMARKS
CUT BANK       SUNNY     59  33  37 N24G32    30.13R
GREAT FALLS    PTSUNNY   62  30  29 MISG      30.11R
HELENA         SUNNY     69  26  20 W21G29    30.09R
AUGUSTA          N/A     62  31  30 N13G22    30.11R
CHOTEAU          N/A     64  28  25 N16G24    30.13R
RAYNESFORD       N/A     60  36  41 NW12G21   30.09R
$$

MTZ011-013-016-021-045-047-050-051-221900-
NORTH CENTRAL MONTANA

CITY           SKY/WX    TMP DP  RH WIND       PRES   REMARKS
HAVRE          MOSUNNY   65  35  33 NW31G41   30.04R
LEWISTOWN      MOSUNNY   61  35  37 NW13G20   30.06R
N BAR RANCH      N/A     64  32  29 NW15G29   30.07R
CHINOOK          N/A     63  34  34 NW23G33   30.00R
FORT BENTON      N/A     66  30  26 MISG      30.08R
GEYSER         PTSUNNY   61  29  30 NW22G32   30.07R
JUDITH GAP     PTSUNNY   59  35  41 N23G31    30.05R
STANFORD         N/A     61  34  35 NW18G36   30.07R
$$

MTZ017>020-022>027-061-062-221900-
NORTHEAST MONTANA

CITY           SKY/WX    TMP DP  RH WIND       PRES   REMARKS
GLASGOW        MOSUNNY   70  29  21 W25G38    29.90F
JORDAN           N/A     73  29  19 NW21G26   29.94F
SIDNEY         MOSUNNY   71  37  28 W24G31    29.87F
WOLF POINT     PTSUNNY   71  34  25 W24G36    29.89F
MALTA          MOSUNNY   68  30  24 NW28G39   29.95S
PLENTYWOOD       N/A     64  34  32 W33G49    29.82S
POPLAR           N/A     66  34  30 W23G33    29.88S
$$

MTZ028>42-056>058-221900-
SOUTHCENTRAL AND SOUTHEAST MONTANA

CITY           SKY/WX    TMP DP  RH WIND       PRES   REMARKS
BAKER          PTSUNNY   69  30  23 W18G26    29.94F
BILLINGS       MOSUNNY   71  29  21 NW12G18   30.01S
LIVINGSTON     SUNNY     68  28  22 W23G31    30.07R
MILES CITY     PTSUNNY   72  32  23 NW20G28   29.95S
BIG TIMBER     SUNNY     66  27  22 W24G38    30.08R
FORSYTH          N/A     68  37  32 NW7G20    29.96F
$$

REGIONAL REPORTS...DAKOTAS

CITY           SKY/WX    TMP DP  RH WIND       PRES   REMARKS
WILLISTON      MOSUNNY   72  36  26 W28G37    29.85F
MINOT          SUNNY     72  32  23 W31G38    29.77S
DICKINSON      SUNNY     71  27  19 NW23G32   29.87F
BEACH            N/A     66  34  30 W14G22    29.95S
CROSBY         PTSUNNY   66  34  30 W32G45    29.78S
TIOGA            N/A     64  36  34 W36G43    29.82F
WATFORD CITY     N/A     68  36  30 NW17G30   29.85F
BISMARCK       SUNNY     75  41  29 NW14G26   29.83F
GRAND FORKS    MOSUNNY   76  47  35 W17G31    29.67F
FARGO          SUNNY     77  47  34 W15       29.72F
BUFFALO SD       N/A     72  37  28 NW20G28   29.87F
RAPID CITY     MOSUNNY   69  45  41 N16G26    29.95F
$$

REGIONAL REPORTS...WYOMING/IDAHO/WASHINGTON

CITY           SKY/WX    TMP DP  RH WIND       PRES   REMARKS
GILLETTE       SUNNY     68  36  30 NE10G22   30.01F
SHERIDAN       SUNNY     70  39  32 N6        30.01S
BUFFALO WY     SUNNY     65  38  36 E5        30.05S
CODY           SUNNY     65  35  33 N8        30.06F
YELLOWSTONE LA   N/A     58  32  37 VRB5      30.20F
IDAHO FALLS    SUNNY     70  24  17 N6        30.11F
SALMON         SUNNY     64  30  27 N3        30.12F
BOISE          SUNNY     74  35  24 NW17G28   30.12S
SPOKANE        MOSUNNY   70  23  17 N13G23    30.21R
$$

REGIONAL REPORTS...ALBERTA

CITY           SKY/WX    TMP DP  RH WIND       PRES   REMARKS
EDMONTON       PTSUNNY   52  41  66 NW20G25   30.12R
CALGARY        CLOUDY    55  37  50 N24G33    30.16R
LETHBRIDGE     PTSUNNY   54  39  58 NW21G35   30.17R
MEDICINE HAT   LGT RAIN  48  46  93 W24G30    30.08R
WATERTON GATE    N/A     57  36  44 NE13        N/A
CARDSTON         N/A     57  36  44 N12G17      N/A
MILK RIVER       N/A     55  41  58 N30G38      N/A
ONEFOUR          N/A     52  39  62 NW36G41     N/A
$$

REGIONAL REPORTS...SASKATCHEWAN

CITY           SKY/WX    TMP DP  RH WIND       PRES   REMARKS
SWIFT CURRENT  LGT RAIN  48  46  93 W25G33    29.84S FOG
REGINA         LGT RAIN  50  48  93 W25G33    29.74S
SASKATOON      LGT RAIN  55  52  88 NW23      29.74R
ROCKGLEN         N/A     59  36  41 W32G47      N/A
ASSINIBOIA       N/A     54  43  66 NW23G32     N/A
$$




USA.gov is the U.S. government's official web portal to all federal, state and local government web resources and services.